• Em Portugal
  • Lista de países
  • Para 7 dias
  • Temperatura da água
  • Mapas de satélite
  • Mapa do tempo
  • Widgets de tempo
  • user-avatar
    Iniciar Sessão

    Previsão horária em Brasília

    Hoje, 18 Agosto, Sexta-feira

    Tempo Temperatura Precipitação Vento Pressão Humidade
    00:00 +22°C° 0 mm 1 m/s 666 mmHg 35%
    01:00 +21°C° 0 mm 1 m/s 666 mmHg 35%
    02:00 +21°C° 0 mm 1 m/s 666 mmHg 36%
    03:00 +20°C° 0 mm 1 m/s 665 mmHg 35%
    04:00 +20°C° 0 mm 1 m/s 665 mmHg 36%
    05:00 +20°C° 0 mm 1 m/s 666 mmHg 37%
    06:00 +19°C° 0 mm 1 m/s 666 mmHg 37%
    07:00 +20°C° 0 mm 2 m/s 666 mmHg 34%
    08:00 +24°C° 0 mm 2 m/s 667 mmHg 31%
    09:00 +26°C° 0 mm 3 m/s 668 mmHg 28%
    10:00 +28°C° 0 mm 3 m/s 668 mmHg 25%
    11:00 +29°C° 0 mm 2 m/s 668 mmHg 22%
    12:00 +31°C° 0 mm 2 m/s 669 mmHg 20%
    13:00 +32°C° 0 mm 2 m/s 668 mmHg 19%
    14:00 +34°C° 0 mm 2 m/s 668 mmHg 18%
    15:00 +33°C° 0 mm 1 m/s 667 mmHg 17%
    16:00 +32°C° 0 mm 2 m/s 666 mmHg 19%
    17:00 +30°C° 0 mm 2 m/s 666 mmHg 21%
    18:00 +28°C° 0 mm 2 m/s 665 mmHg 23%
    19:00 +27°C° 0 mm 2 m/s 665 mmHg 25%
    20:00 +26°C° 0 mm 2 m/s 666 mmHg 28%
    21:00 +24°C° 0 mm 2 m/s 666 mmHg 30%
    22:00 +24°C° 0 mm 2 m/s 666 mmHg 32%
    23:00 +23°C° 0 mm 2 m/s 666 mmHg 33%

    Amanhã, 19 Agosto, Sábado

    Tempo Temperatura Precipitação Vento Pressão Humidade
    00:00 +21°C° 0 mm 2 m/s 666 mmHg 35%
    01:00 +21°C° 0 mm 2 m/s 665 mmHg 36%
    02:00 +21°C° 0 mm 2 m/s 665 mmHg 38%
    03:00 +20°C° 0 mm 2 m/s 665 mmHg 39%
    04:00 +20°C° 0 mm 3 m/s 665 mmHg 41%
    05:00 +20°C° 0 mm 3 m/s 665 mmHg 42%
    06:00 +19°C° 0 mm 3 m/s 665 mmHg 44%
    07:00 +21°C° 0 mm 4 m/s 666 mmHg 41%
    08:00 +22°C° 0 mm 4 m/s 667 mmHg 38%
    09:00 +25°C° 0 mm 5 m/s 668 mmHg 35%
    10:00 +27°C° 0 mm 5 m/s 668 mmHg 31%
    11:00 +29°C° 0 mm 4 m/s 668 mmHg 27%
    12:00 +32°C° 0 mm 4 m/s 668 mmHg 23%
    13:00 +33°C° 0 mm 4 m/s 667 mmHg 22%
    14:00 +33°C° 0 mm 4 m/s 666 mmHg 21%
    15:00 +34°C° 0 mm 3 m/s 666 mmHg 20%
    16:00 +31°C° 0 mm 3 m/s 665 mmHg 23%
    17:00 +30°C° 0 mm 3 m/s 665 mmHg 25%
    18:00 +28°C° 0 mm 2 m/s 665 mmHg 28%
    19:00 +27°C° 0 mm 2 m/s 665 mmHg 30%
    20:00 +26°C° 0 mm 2 m/s 666 mmHg 32%
    21:00 +25°C° 0 mm 3 m/s 666 mmHg 33%
    22:00 +25°C° 0 mm 3 m/s 666 mmHg 34%
    23:00 +24°C° 0 mm 3 m/s 666 mmHg 34%

    Depois de amanhã, 20 Agosto, Domingo

    Tempo Temperatura Precipitação Vento Pressão Humidade
    00:00 +22°C° 0 mm 3 m/s 667 mmHg 35%
    01:00 +22°C° 0 mm 3 m/s 666 mmHg 36%
    02:00 +21°C° 0 mm 3 m/s 666 mmHg 37%
    03:00 +21°C° 0 mm 2 m/s 666 mmHg 38%
    04:00 +20°C° 0 mm 3 m/s 666 mmHg 38%
    05:00 +20°C° 0 mm 3 m/s 666 mmHg 39%
    06:00 +19°C° 0 mm 3 m/s 666 mmHg 39%
    07:00 +21°C° 0 mm 4 m/s 667 mmHg 36%
    08:00 +22°C° 0 mm 4 m/s 668 mmHg 33%
    09:00 +25°C° 0 mm 4 m/s 669 mmHg 30%
    10:00 +27°C° 0 mm 4 m/s 669 mmHg 27%
    11:00 +30°C° 0 mm 3 m/s 669 mmHg 23%
    12:00 +33°C° 0 mm 3 m/s 669 mmHg 20%
    13:00 +34°C° 0 mm 2 m/s 669 mmHg 19%
    14:00 +34°C° 0 mm 1 m/s 668 mmHg 17%
    15:00 +35°C° 0 mm 1 m/s 668 mmHg 16%
    16:00 +33°C° 0 mm 1 m/s 667 mmHg 18%
    17:00 +31°C° 0 mm 1 m/s 667 mmHg 20%
    18:00 +29°C° 0 mm 2 m/s 667 mmHg 22%
    19:00 +28°C° 0 mm 2 m/s 667 mmHg 25%
    20:00 +27°C° 0 mm 2 m/s 667 mmHg 27%
    21:00 +25°C° 0 mm 2 m/s 667 mmHg 30%
    22:00 +25°C° 0 mm 2 m/s 667 mmHg 31%
    23:00 +24°C° 0 mm 2 m/s 667 mmHg 33%

    21 Agosto, Segunda-feira

    Tempo Temperatura Precipitação Vento Pressão Humidade
    00:00 +23°C° 0 mm 2 m/s 667 mmHg 35%
    01:00 +23°C° 0 mm 2 m/s 667 mmHg 36%
    02:00 +21°C° 0 mm 2 m/s 666 mmHg 37%
    03:00 +21°C° 0 mm 2 m/s 666 mmHg 38%
    04:00 +20°C° 0 mm 2 m/s 666 mmHg 40%
    05:00 +21°C° 0 mm 1 m/s 667 mmHg 41%
    06:00 +20°C° 0 mm 1 m/s 667 mmHg 43%
    07:00 +21°C° 0 mm 2 m/s 668 mmHg 39%
    08:00 +25°C° 0 mm 2 m/s 669 mmHg 34%
    09:00 +27°C° 0 mm 3 m/s 670 mmHg 30%
    10:00 +29°C° 0 mm 3 m/s 670 mmHg 27%
    11:00 +30°C° 0 mm 3 m/s 670 mmHg 23%
    12:00 +33°C° 0 mm 3 m/s 669 mmHg 20%
    13:00 +34°C° 0 mm 2 m/s 669 mmHg 19%
    14:00 +35°C° 0 mm 2 m/s 668 mmHg 18%
    15:00 +36°C° 0 mm 2 m/s 668 mmHg 17%
    16:00 +34°C° 0 mm 2 m/s 668 mmHg 19%
    17:00 +32°C° 0 mm 2 m/s 667 mmHg 21%
    18:00 +30°C° 0 mm 2 m/s 667 mmHg 22%
    19:00 +29°C° 0 mm 3 m/s 667 mmHg 24%
    20:00 +28°C° 0 mm 3 m/s 668 mmHg 26%
    21:00 +27°C° 0 mm 3 m/s 668 mmHg 28%
    22:00 +26°C° 0 mm 3 m/s 668 mmHg 30%
    23:00 +26°C° 0 mm 3 m/s 668 mmHg 32%

    22 Agosto, Terça-feira

    Tempo Temperatura Precipitação Vento Pressão Humidade
    00:00 +25°C° 0 mm 2 m/s 668 mmHg 34%
    01:00 +24°C° 0 mm 3 m/s 667 mmHg 36%
    02:00 +24°C° 0 mm 3 m/s 667 mmHg 37%
    03:00 +22°C° 0 mm 4 m/s 667 mmHg 38%
    04:00 +22°C° 0 mm 5 m/s 667 mmHg 42%
    05:00 +21°C° 0 mm 5 m/s 667 mmHg 47%
    06:00 +21°C° 0 mm 6 m/s 668 mmHg 51%
    07:00 +21°C° 0 mm 6 m/s 668 mmHg 52%
    08:00 +22°C° 0 mm 7 m/s 669 mmHg 52%
    09:00 +22°C° 0 mm 7 m/s 669 mmHg 53%
    10:00 +24°C° 0 mm 7 m/s 669 mmHg 48%
    11:00 +27°C° 0 mm 6 m/s 669 mmHg 42%
    12:00 +29°C° 0 mm 6 m/s 669 mmHg 37%
    13:00 +29°C° 0 mm 6 m/s 669 mmHg 35%
    14:00 +30°C° 0 mm 5 m/s 668 mmHg 33%
    15:00 +32°C° 0 mm 5 m/s 668 mmHg 31%
    16:00 +30°C° 0 mm 4 m/s 667 mmHg 33%
    17:00 +28°C° 0 mm 4 m/s 667 mmHg 35%
    18:00 +27°C° 0 mm 3 m/s 667 mmHg 37%
    19:00 +26°C° 0 mm 3 m/s 667 mmHg 40%
    20:00 +26°C° 0 mm 3 m/s 668 mmHg 42%
    21:00 +25°C° 0 mm 3 m/s 668 mmHg 45%
    22:00 +23°C° 0 mm 4 m/s 668 mmHg 47%
    23:00 +22°C° 0 mm 4 m/s 668 mmHg 49%

    23 Agosto, Quarta-feira

    Tempo Temperatura Precipitação Vento Pressão Humidade
    00:00 +22°C° 0 mm 4 m/s 668 mmHg 51%
    01:00 +21°C° 0 mm 5 m/s 668 mmHg 54%
    02:00 +20°C° 0 mm 5 m/s 667 mmHg 57%
    03:00 +20°C° 0 mm 5 m/s 667 mmHg 60%
    04:00 +19°C° 0 mm 5 m/s 667 mmHg 63%
    05:00 +17°C° 0 mm 5 m/s 667 mmHg 66%
    06:00 +17°C° 0 mm 5 m/s 667 mmHg 70%
    07:00 +19°C° 0 mm 5 m/s 668 mmHg 66%
    08:00 +20°C° 0 mm 6 m/s 669 mmHg 62%
    09:00 +20°C° 0 mm 6 m/s 669 mmHg 58%
    10:00 +22°C° 0 mm 6 m/s 669 mmHg 51%
    11:00 +25°C° 0 mm 5 m/s 669 mmHg 45%
    12:00 +27°C° 0 mm 5 m/s 669 mmHg 38%
    13:00 +28°C° 0 mm 5 m/s 669 mmHg 35%
    14:00 +29°C° 0 mm 5 m/s 668 mmHg 33%
    15:00 +29°C° 0 mm 5 m/s 668 mmHg 31%
    16:00 +28°C° 0 mm 4 m/s 667 mmHg 33%
    17:00 +27°C° 0 mm 4 m/s 667 mmHg 35%
    18:00 +26°C° 0 mm 3 m/s 667 mmHg 37%
    19:00 +25°C° 0 mm 3 m/s 667 mmHg 40%
    20:00 +24°C° 0 mm 3 m/s 668 mmHg 43%
    21:00 +22°C° 0 mm 3 m/s 668 mmHg 45%
    22:00 +21°C° 0 mm 3 m/s 668 mmHg 48%
    23:00 +21°C° 0 mm 4 m/s 668 mmHg 51%
    Mostrar mais